timestamp,surface_pressure_avg,surface_temp_avg,battery_voltage,lat,long
2021-01-25 00:09:01+00:00,289.2614,2.46,12.65,47.84626,-54.09684
2021-01-25 00:19:01+00:00,283.1414,2.46,12.65,47.84626,-54.09684
2021-01-25 00:29:01+00:00,278.3163,2.4,12.65,47.84626,-54.09684
2021-01-25 00:39:01+00:00,276.2381,2.4,12.65,47.84626,-54.09684
2021-01-25 00:49:01+00:00,272.6881,2.4,12.65,47.84626,-54.09684
2021-01-25 00:59:01+00:00,266.063,2.4,12.65,47.84626,-54.09684
2021-01-25 01:09:01+00:00,262.2597,2.4,12.65,47.84626,-54.09684
2021-01-25 01:19:01+00:00,260.8014,2.4,12.57,47.84626,-54.09684
2021-01-25 01:29:01+00:00,256.7781,2.4,12.57,47.84626,-54.09684
2021-01-25 01:39:01+00:00,251.0964,2.4,12.57,47.84626,-54.09684
2021-01-25 01:49:01+00:00,248.1014,2.4,12.57,47.84626,-54.09684
2021-01-25 01:59:01+00:00,246.9781,2.4,12.57,47.84626,-54.09684
2021-01-25 02:09:01+00:00,243.5514,2.4,12.57,47.84626,-54.09684
2021-01-25 02:19:01+00:00,241.1881,2.38,12.57,47.84626,-54.09684
2021-01-25 02:29:01+00:00,242.3448,2.35,12.57,47.84626,-54.09684
2021-01-25 02:39:01+00:00,239.7031,2.3,12.57,47.84626,-54.09684
2021-01-25 02:49:01+00:00,238.9598,2.3,12.57,47.84626,-54.09684
2021-01-25 02:59:01+00:00,244.6031,2.3,12.57,47.84626,-54.09684
2021-01-25 03:09:01+00:00,246.8931,2.3,12.57,47.84626,-54.09684
2021-01-25 03:19:01+00:00,244.9881,2.27,12.57,47.84626,-54.09684
2021-01-25 03:29:01+00:00,245.8064,2.26,12.57,47.84626,-54.09684
2021-01-25 03:39:01+00:00,249.4364,2.29,12.57,47.84626,-54.09684
2021-01-25 03:49:01+00:00,250.768,2.29,12.57,47.84626,-54.09684
2021-01-25 03:59:01+00:00,252.0131,2.29,12.57,47.84626,-54.09684
2021-01-25 04:09:01+00:00,256.6631,2.29,12.57,47.84626,-54.09684
2021-01-25 04:19:01+00:00,260.0181,2.3,12.57,47.84626,-54.09684
2021-01-25 04:29:01+00:00,259.0064,2.29,12.57,47.84626,-54.09684
2021-01-25 04:39:01+00:00,262.2681,2.26,12.57,47.84626,-54.09684
2021-01-25 04:49:01+00:00,269.1514,2.26,12.57,47.84626,-54.09684
2021-01-25 04:59:01+00:00,275.1764,2.26,12.57,47.84626,-54.09684
2021-01-25 05:09:01+00:00,275.0664,2.24,12.57,47.84626,-54.09684
2021-01-25 05:19:01+00:00,278.1414,2.23,12.57,47.84626,-54.09684
2021-01-25 05:29:01+00:00,281.5464,2.25,12.57,47.84626,-54.09684
2021-01-25 05:39:01+00:00,286.5914,2.25,12.57,47.84626,-54.09684
2021-01-25 05:49:01+00:00,289.2747,2.25,12.57,47.84626,-54.09684
2021-01-25 05:59:01+00:00,293.783,2.25,12.57,47.84626,-54.09684
2021-01-25 06:09:01+00:00,296.7747,2.27,12.57,47.84626,-54.09684
2021-01-25 06:19:01+00:00,301.8514,2.27,12.49,47.84626,-54.09684
2021-01-25 06:29:01+00:00,307.5781,2.28,12.49,47.84626,-54.09684
2021-01-25 06:39:01+00:00,313.5313,2.28,12.49,47.84626,-54.09684
2021-01-25 06:49:01+00:00,316.0513,2.27,12.49,47.84626,-54.09684
2021-01-25 06:59:01+00:00,321.6597,2.27,12.49,47.84626,-54.09684
2021-01-25 07:09:01+00:00,328.043,2.27,12.49,47.84626,-54.09684
2021-01-25 07:19:01+00:00,331.1313,2.2,12.49,47.84626,-54.09684
2021-01-25 07:29:01+00:00,334.2997,2.0,12.49,47.84626,-54.09684
2021-01-25 07:39:01+00:00,339.8014,2.04,12.49,47.84626,-54.09684
2021-01-25 07:49:01+00:00,345.1196,2.17,12.49,47.84626,-54.09684
2021-01-25 07:59:01+00:00,346.283,2.2,12.49,47.84626,-54.09684
2021-01-25 08:09:01+00:00,350.4979,2.2,12.49,47.84626,-54.09684
2021-01-25 08:19:01+00:00,354.2147,2.21,12.49,47.84626,-54.09684
2021-01-25 08:29:01+00:00,353.62300000000016,2.23,12.49,47.84626,-54.09684
2021-01-25 08:39:01+00:00,354.0131,2.27,12.49,47.84626,-54.09684
2021-01-25 08:49:01+00:00,356.5012,2.29,12.49,47.84626,-54.09684
2021-01-25 08:59:01+00:00,360.7663,2.29,12.49,47.84626,-54.09684
2021-01-25 09:09:01+00:00,361.3196,2.27,12.49,47.84626,-54.09684
2021-01-25 09:19:01+00:00,360.93800000000016,2.27,12.49,47.84626,-54.09684
2021-01-25 09:29:01+00:00,361.5263,2.28,12.49,47.84626,-54.09684
2021-01-25 09:39:01+00:00,357.0646,2.29,12.49,47.84626,-54.09684
2021-01-25 09:49:01+00:00,355.4297,2.2,12.49,47.84626,-54.09684
2021-01-25 09:59:01+00:00,359.4696,2.2,12.49,47.84626,-54.09684
2021-01-25 10:09:01+00:00,357.593,2.1,12.49,47.84626,-54.09684
2021-01-25 10:19:01+00:00,349.8029,2.0,12.49,47.84626,-54.09684
2021-01-25 10:29:01+00:00,348.1062,1.98,12.49,47.84626,-54.09684
2021-01-25 10:39:01+00:00,348.8362,1.99,12.49,47.84626,-54.09684
2021-01-25 10:49:01+00:00,345.0963,2.0,12.49,47.84626,-54.09684
2021-01-25 10:59:01+00:00,338.2363,2.0,12.49,47.84626,-54.09684
2021-01-25 11:09:01+00:00,337.8830000000001,2.0,12.49,47.84626,-54.09684
2021-01-25 11:19:01+00:00,336.4763,2.0,12.49,47.84626,-54.09684
2021-01-25 11:29:01+00:00,329.7029,2.0,12.49,47.84626,-54.09684
2021-01-25 11:39:01+00:00,323.4412,2.0,12.49,47.84626,-54.09684
2021-01-25 11:49:01+00:00,322.4714,2.0,12.49,47.84626,-54.09684
2021-01-25 11:59:01+00:00,318.393,2.0,12.49,47.84626,-54.09684
2021-01-25 12:09:01+00:00,308.2463,2.0,12.49,47.84626,-54.09684
2021-01-25 12:19:01+00:00,301.7762,1.9,12.73,47.84626,-54.09684
2021-01-25 12:29:01+00:00,302.2197,1.89,12.73,47.84626,-54.09684
2021-01-25 12:39:01+00:00,298.378,1.9,12.73,47.84626,-54.09684
2021-01-25 12:49:01+00:00,289.1414,1.9,12.73,47.84626,-54.09684
2021-01-25 12:59:01+00:00,284.8147,1.85,12.73,47.84626,-54.09684
2021-01-25 13:09:01+00:00,286.178,1.9,12.73,47.84626,-54.09684
2021-01-25 13:19:01+00:00,285.9747,1.9,13.37,47.84626,-54.09684
2021-01-25 13:29:01+00:00,278.0414,1.9,13.37,47.84626,-54.09684
2021-01-25 13:39:01+00:00,269.6447,1.8,13.37,47.84626,-54.09684
2021-01-25 13:49:01+00:00,268.233,1.8,13.37,47.84626,-54.09684
2021-01-25 13:59:01+00:00,268.018,1.86,13.37,47.84626,-54.09684
2021-01-25 14:09:01+00:00,261.1397,1.9,13.37,47.84626,-54.09684
2021-01-25 14:19:01+00:00,255.733,1.78,14.24,47.84626,-54.09684
2021-01-25 14:29:01+00:00,257.3148,1.75,14.24,47.84626,-54.09684
2021-01-25 14:39:01+00:00,253.6181,1.8,14.24,47.84626,-54.09684
2021-01-25 14:49:01+00:00,245.9114,1.6,14.24,47.84626,-54.09684
2021-01-25 14:59:01+00:00,244.9098,1.5,14.24,47.84626,-54.09684
2021-01-25 15:09:01+00:00,245.9081,1.55,14.24,47.84626,-54.09684
2021-01-25 15:19:01+00:00,240.6014,1.5,14.48,47.84626,-54.09684
2021-01-25 15:29:01+00:00,234.7181,1.4,14.48,47.84626,-54.09684
2021-01-25 15:39:01+00:00,237.6214,1.4,14.48,47.84626,-54.09684
2021-01-25 15:49:01+00:00,241.4097,1.41,14.48,47.84626,-54.09684
2021-01-25 15:59:01+00:00,238.7982,1.49,14.48,47.84626,-54.09684
2021-01-25 16:09:01+00:00,235.7431,1.42,14.48,47.84626,-54.09684
2021-01-25 16:19:01+00:00,240.1381,1.47,14.48,47.84626,-54.09684
2021-01-25 16:29:01+00:00,244.4164,1.53,14.48,47.84626,-54.09684
2021-01-25 16:39:01+00:00,243.4131,1.65,14.48,47.84626,-54.09684
2021-01-25 16:49:01+00:00,243.5747,1.78,14.48,47.84626,-54.09684
2021-01-25 16:59:01+00:00,247.2981,1.8,14.48,47.84626,-54.09684
2021-01-25 17:09:01+00:00,248.9831,1.87,14.48,47.84626,-54.09684
2021-01-25 17:19:01+00:00,247.2914,2.01,14.4,47.84626,-54.09684
2021-01-25 17:29:01+00:00,250.1797,2.1,14.4,47.84626,-54.09684
2021-01-25 17:39:01+00:00,255.2797,2.19,14.4,47.84626,-54.09684
2021-01-25 17:49:01+00:00,256.7464,2.2,14.4,47.84626,-54.09684
2021-01-25 17:59:01+00:00,254.0564,2.2,14.4,47.84626,-54.09684
2021-01-25 18:09:01+00:00,257.0131,2.2,14.4,47.84626,-54.09684
2021-01-25 18:19:01+00:00,261.6014,2.2,14.24,47.84626,-54.09684
2021-01-25 18:29:01+00:00,261.7914,2.2,14.24,47.84626,-54.09684
2021-01-25 18:39:01+00:00,261.7131,2.2,14.24,47.84626,-54.09684
2021-01-25 18:49:01+00:00,267.6748,2.15,14.24,47.84626,-54.09684
2021-01-25 18:59:01+00:00,273.0297,2.1,14.24,47.84626,-54.09684
2021-01-25 19:09:01+00:00,274.0681,1.52,14.24,47.84626,-54.09684
2021-01-25 19:19:01+00:00,278.0964,1.6,13.92,47.84626,-54.09684
2021-01-25 19:29:01+00:00,286.9114,1.8,13.92,47.84626,-54.09684
2021-01-25 19:39:01+00:00,292.8497,1.7,13.92,47.84626,-54.09684
2021-01-25 19:49:01+00:00,294.9481,1.5,13.92,47.84626,-54.09684
2021-01-25 19:59:01+00:00,300.1464,1.5,13.92,47.84626,-54.09684
2021-01-25 20:09:01+00:00,307.6647,1.5,13.92,47.84626,-54.09684
2021-01-25 20:19:01+00:00,312.6946,1.54,13.44,47.84626,-54.09684
2021-01-25 20:29:01+00:00,313.528,1.6,13.44,47.84626,-54.09684
2021-01-25 20:39:01+00:00,317.7563,1.6,13.44,47.84626,-54.09684
2021-01-25 20:49:01+00:00,322.693,1.62,13.44,47.84626,-54.09684
2021-01-25 20:59:01+00:00,324.308,1.7,13.44,47.84626,-54.09684
2021-01-25 21:09:01+00:00,322.3563,1.7,13.44,47.84626,-54.09684
2021-01-25 21:19:01+00:00,325.4597,1.7,13.05,47.84626,-54.09684
2021-01-25 21:29:01+00:00,328.608,1.7,13.05,47.84626,-54.09684
2021-01-25 21:39:01+00:00,327.8746,1.7,13.05,47.84626,-54.09684
2021-01-25 21:49:01+00:00,326.5213,1.7,13.05,47.84626,-54.09684
2021-01-25 21:59:01+00:00,327.1863,1.7,13.05,47.84626,-54.09684
2021-01-25 22:09:01+00:00,326.6512,1.7,13.05,47.84626,-54.09684
2021-01-25 22:19:01+00:00,321.3163,1.7,12.73,47.84626,-54.09684
2021-01-25 22:29:01+00:00,318.5847,1.7,12.73,47.84626,-54.09684
2021-01-25 22:39:01+00:00,320.7164,1.7,12.73,47.84626,-54.09684
2021-01-25 22:49:01+00:00,320.5097,1.63,12.73,47.84626,-54.09684
2021-01-25 22:59:01+00:00,315.9597,1.57,12.73,47.84626,-54.09684
2021-01-25 23:09:01+00:00,313.0729,1.6,12.73,47.84626,-54.09684
2021-01-25 23:19:01+00:00,312.0397,1.7,12.65,47.84626,-54.09684
2021-01-25 23:29:01+00:00,310.2896,1.72,12.65,47.84626,-54.09684
2021-01-25 23:39:01+00:00,308.9447,1.79,12.65,47.84626,-54.09684
2021-01-25 23:49:01+00:00,304.9096,1.8,12.65,47.84626,-54.09684
2021-01-25 23:59:01+00:00,300.5864,1.8,12.65,47.84626,-54.09684
